Regional Weather Roundup
Issued by NWS

Home | Current Version | Previous Version | Graphics & Text | Print | Product List | Glossary On
Versions: 1 2 3 4 5 6 7 8 9 10 11 12 13 14 15 16 17 18 19 20 21 22 23 24 25 26 27 28 29 30 31 32 33 34 35 36 37 38 39 40 41 42 43 44 45 46 47 48 49 50
000
ASUS43 KLMK 282210
RWRKY
KENTUCKY REGIONAL WEATHER ROUNDUP
NATIONAL WEATHER SERVICE LOUISVILLE KY
600 PM EDT WED JUN 28 2017

NOTE "FAIR" INDICATES FEW OR NO CLOUDS BELOW 12,000 FEET
WITH NO SIGNIFICANT WEATHER AND/OR OBSTRUCTIONS TO VISIBILITY.

KYZ001>023-026-027-061>063-070>075-282300-
WESTERN AND SOUTH CENTRAL KENTUCKY

CITY           SKY/WX    TMP DP  RH WIND       PRES   REMARKS
PADUCAH        CLOUDY    84  63  49 S7        29.98F
HENDERSON      MOSUNNY   83  62  49 S10G16    30.00F
OWENSBORO      SUNNY     85  60  42 S12G18    30.01F
HOPKINSVILLE   SUNNY     85  61  44 S10       30.02F
BOWLING GREEN  MOSUNNY   84  58  40 S9        30.04F
GLASGOW        CLOUDY    83  53  36 SW6       30.06F
$$

KYZ024-025-028>034-038-045-046-053-282300-
NORTH CENTRAL KENTUCKY

CITY           SKY/WX    TMP DP  RH WIND       PRES   REMARKS
LOUISVILLE/SDF CLOUDY    83  54  36 S12       30.04F
LOUISVILLE/LOU CLOUDY    83  55  38 S9        30.05S
FORT KNOX      CLOUDY    81  55  41 S9        30.03F
$$

KYZ035>037-039>044-047>052-055>060-089>105-282300-
NORTHEAST KENTUCKY

CITY           SKY/WX    TMP DP  RH WIND       PRES   REMARKS
LEXINGTON      SUNNY     81  53  37 SW8       30.08F
COVINGTON      CLOUDY    77  55  46 S9        30.05F
FRANKFORT      CLOUDY    80  53  39 S9        30.05F
$$

KYZ054-064>069-076>088-106>120-282300-
SOUTHEAST KENTUCKY

CITY           SKY/WX    TMP DP  RH WIND       PRES   REMARKS
JACKSON        SUNNY     79  56  45 S3        30.12F
LONDON         SUNNY     81  51  35 VRB6      30.10F
SOMERSET       SUNNY     81  52  36 S6        30.09F
MIDDLESBORO    SUNNY     82  55  39 S6        30.11F
MONTICELLO     CLEAR     83  57  41 NE5       30.10F
$$





USA.gov is the U.S. government's official web portal to all federal, state and local government web resources and services.